San Luis Potosi, Mexico

5:43 AM CST on February 08, 2016 (GMT -0600)
Ponciano Arriaga International

Weather History for MMSP - January, 2013

Change the Weather History Date:

Friday, January 25, 2013

  Actual Average Record
Temperature  
Mean Temperature 54 °F -  
Max Temperature 74 °F 71 °F 77 °F (2000)
Min Temperature 33 °F 40 °F 23 °F (1999)
Degree Days  
Heating Degree Days 12    
Growing Degree Days 4 (Base 50)    
Moisture  
Dew Point 37 °F    
Average Humidity 69    
Maximum Humidity 100    
Minimum Humidity 13    
Precipitation  
Precipitation 0.00 in - - ()
Sea Level Pressure  
Sea Level Pressure 30.26 in    
Wind  
Wind Speed 2 mph ()    
Max Wind Speed 10 mph    
Max Gust Speed -    
Visibility 6.6 miles    
Events Fog    
Averages and records for this station are not official NWS values.
T = Trace of Precipitation, MM = Missing Value Source: Averaged Metar Reports

Daily Weather History Graph

Daily Weather History Graph

Search for Another Location

Airport or City:

Trip Planner

Search our weather history database for the weather conditions in past years. The results will help you decide how hot, cold, wet, or windy it might be!

Date:

Astronomy

Jan. 25, 2013 Rise Set
Actual Time 7:24 AM CST 6:28 PM CST
Civil Twilight 7:00 AM CST 6:51 PM CST
Nautical Twilight 6:33 AM CST 7:18 PM CST
Astronomical Twilight 6:06 AM CST 7:45 PM CST
Moon 5:26 PM CST (1/25) 6:04 AM CST (1/25)
Length of Visible Light 11h 51m
Length of Day
11h 03m
Waxing Gibbous, 98% of the Moon is Illuminated
Jan 25
Waxing Gibbous
Jan 26
Full
Feb 3
Last Quarter
Feb 10
New
Feb 17
First Quarter

Hourly Weather History & Observations

Time (CST) Temp. Windchill Dew Point Humidity Pressure Visibility Wind Dir Wind Speed Gust Speed Precip Events Conditions
12:46 AM 44.6 °F - 37.4 °F 76% 30.39 in 6.0 mi Calm Calm - N/A   Clear
1:46 AM 44.6 °F 39.7 °F 44.6 °F 100% 30.39 in 6.0 mi NNW 9.2 mph - N/A   Clear
2:41 AM 44.6 °F 40.7 °F 44.6 °F 100% 30.04 in 3.0 mi NW 6.9 mph - N/A   Clear
2:50 AM 45 °F - 42 °F 83% 30.22 in 5 mi North 2.2 mph - -  
3:54 AM 41.0 °F 38.0 °F 41.0 °F 100% 30.37 in 2.0 mi SSW 4.6 mph - N/A   Clear
4:40 AM 39.2 °F 35.9 °F 39.2 °F 100% 30.36 in 2.0 mi NNW 4.6 mph - N/A   Clear
4:54 AM 39.2 °F - 39.2 °F 100% 30.37 in 0.0 mi Calm Calm - N/A Fog Fog
5:44 AM 37.4 °F - 37.4 °F 100% 30.14 in 0.2 mi Calm Calm - N/A Fog Fog
5:50 AM 40 °F - 39 °F 93% 30.27 in 5 mi North 2.2 mph - -  
6:41 AM 37.4 °F 33.8 °F 37.4 °F 100% 30.38 in 0.1 mi West 4.6 mph - N/A Fog Fog
6:58 AM 35.6 °F - 35.6 °F 100% 30.38 in 0.2 mi Calm Calm - N/A Fog Fog
7:42 AM 35.6 °F - 33.8 °F 93% 30.38 in 0.2 mi Calm Calm - N/A Fog Fog
8:06 AM 35.6 °F - 33.8 °F 93% 30.39 in 0.1 mi Calm Calm - N/A Fog Fog
8:40 AM 41.0 °F - 39.2 °F 93% 30.22 in 0.2 mi Calm Calm - N/A Fog Fog
8:50 AM 41 °F - 32 °F 62% 30.36 in 8 mi Calm Calm - -   Haze
8:58 AM 42.8 °F - 42.8 °F 100% 30.39 in 1.0 mi Calm Calm - N/A   Clear
9:31 AM 44.6 °F - 42.8 °F 93% 30.40 in 0.5 mi Calm Calm - N/A Fog Fog
9:43 AM 44.6 °F - 44.6 °F 100% 30.40 in 0.8 mi Calm Calm - N/A   Mostly Cloudy
10:15 AM 48.2 °F - 46.4 °F 93% 30.40 in 5.0 mi Calm Calm - N/A   Clear
10:43 AM 53.6 °F - 44.6 °F 72% 30.39 in 6.0 mi Calm Calm - N/A   Clear
11:41 AM 60.8 °F - 41.0 °F 48% 30.11 in 10.0 mi Calm Calm - N/A   Clear
11:45 AM 60 °F - 46 °F 49% 30.32 in 7 mi North 2.2 mph - -   Haze
12:40 PM 66.2 °F - 30.2 °F 26% 30.33 in 15.0 mi Calm Calm - N/A   Clear
1:42 PM 68.0 °F - 15.8 °F 13% 30.29 in 15.0 mi NNW 4.6 mph - N/A   Clear
2:44 PM 69.8 °F - 21.2 °F 16% 29.97 in 15.0 mi WNW 8.1 mph - N/A   Clear
3:48 PM 69.8 °F - 21.2 °F 16% 30.26 in 15.0 mi Calm Calm - N/A   Clear
4:41 PM 73.4 °F - 23.0 °F 15% 30.23 in 15.0 mi ENE 9.2 mph - N/A   Clear
5:46 PM 69.8 °F - 28.4 °F 21% 29.99 in 15.0 mi NE 10.4 mph - N/A   Clear
5:50 PM 67 °F - 49 °F 42% 30.04 in 9 mi East 4.5 mph - -  
6:45 PM 64.4 °F - 32.0 °F 30% 30.24 in 12.0 mi East 9.2 mph - N/A   Clear
8:47 PM 57.2 °F - 33.8 °F 41% 30.06 in 12.0 mi Calm Calm - N/A   Clear
8:50 PM 54 °F - 52 °F 90% 30.06 in 5 mi North 2.2 mph - -  
9:47 PM 53.6 °F - 32.0 °F 44% 30.28 in 12.0 mi Calm Calm - N/A   Clear
11:05 PM 51.8 °F - 33.8 °F 50% 30.31 in 12.0 mi Calm Calm - N/A   Clear
11:40 PM 50.0 °F - 35.6 °F 58% 30.03 in 12.0 mi Calm Calm - N/A   Clear